FENGYUN 3D (43010 NORAD) Tracking and Keplerian Element Data

This shows tracking and keplerian element data for the satellite.

Feedback or suggestion? Click here.




ElementValue
Catalog43010
NameFENGYUN 3D
Epoch Orbit5196
Epoch Day319.91574804
Epoch Year2018
RAAN257.8107
Inclination98.6893
Eccentricity9.75E-05
Argument of Perigee355.6455
Mean Anonmoly4.4714
Mean Motion14.19708331
Decay Rate-1E-08
L11 43010U 17072A 18319.91574804 -.00000001 00000-0 20293-4 0 9997
L22 43010 98.6893 257.8107 0000975 355.6455 4.4714 14.19708331 51965

Live tracking and technical data element details for FENGYUN 3D (NORAD 43010). FENGYUN 3D can be tracked NOW for your location showing map with azimuth and elevation plus other details from your city location.

Track the satellite on the map from your city or location and see movement details for azimuth, elevation, latitude, longitude, range, height, and movement on the map or in text.







IsCatalogInMostPopularTable: catalog: 43010, numindb: 162
Update: records affected: 1



GetName: 43010 FENGYUN 3D

Hit Count: updated at: Fri, 16 Nov 2018 10:07:56 GMT